Weather History for Challis, ID

Change the Weather History Date:

Saturday, May 25, 2013

  Actual Average Record
Temperature  
Mean Temperature 55 °F 55 °F  
Max Temperature 70 °F 69 °F 89 °F (1966)
Min Temperature 39 °F 41 °F 26 °F (1953)
Degree Days  
Heating Degree Days 10 11  
Month to date heating degree days 264 347  
Since 1 July heating degree days 7547 7938  
Cooling Degree Days 0 0  
Month to date cooling degree days 2 0  
Year to date cooling degree days 2 0  
Growing Degree Days 4 (Base 50)    
Moisture  
Dew Point 24 °F    
Average Humidity 40    
Maximum Humidity 64    
Minimum Humidity 15    
Precipitation  
Precipitation 0.00 in 0.06 in 0.80 in (1899)
Month to date precipitation 0.63 1.14  
Year to date precipitation 1.11 3.80  
Sea Level Pressure  
Sea Level Pressure 29.83 in    
Wind  
Wind Speed 5 mph (WNW)    
Max Wind Speed 23 mph    
Max Gust Speed 29 mph    
Visibility 10 miles    
Events      
T = Trace of Precipitation, MM = Missing Value Source: NWS Daily Summary

Daily Weather History Graph

Daily Weather History Graph

Search for Another Location

Airport:

Trip Planner

Search our weather history database for the weather conditions in past years. The results will help you decide how hot, cold, wet, or windy it might be!

Date:

Astronomy

May. 25, 2013 Rise Set
Actual Time 5:59 AM MDT 9:08 PM MDT
Civil Twilight 5:24 AM MDT 9:43 PM MDT
Nautical Twilight 4:39 AM MDT 10:29 PM MDT
Astronomical Twilight 3:44 AM MDT 11:24 PM MDT
Moon 10:00 PM MDT (5/25) 6:31 AM MDT (5/25)
Length of Visible Light 16h 19m
Length of Day
15h 09m
Waxing Gibbous, 99% of the Moon is Illuminated
May 25
Waxing Gibbous
May 31
Last Quarter
Jun 8
New
Jun 16
First Quarter
Jun 23
Full

Hourly Weather History & Observations

Time (MDT) Temp. Windchill Dew Point Humidity Pressure Visibility Wind Dir Wind Speed Gust Speed Precip Events Conditions
12:55 AM 46.0 °F 43.1 °F 21.9 °F 39% 29.85 in 10.0 mi SSE 5.8 mph - N/A   Clear
1:55 AM 46.0 °F - 24.1 °F 42% 29.85 in 10.0 mi Calm Calm - N/A   Clear
2:55 AM 44.1 °F - 23.0 °F 43% 29.85 in 10.0 mi Calm Calm - N/A   Clear
3:55 AM 39.9 °F - 26.1 °F 58% 29.86 in 10.0 mi Calm Calm - N/A   Clear
4:55 AM 42.1 °F 40.2 °F 24.1 °F 49% 29.86 in 10.0 mi ESE 3.5 mph - N/A   Clear
5:55 AM 39.9 °F - 25.0 °F 55% 29.87 in 10.0 mi Calm Calm - N/A   Clear
6:55 AM 39.9 °F - 28.0 °F 63% 29.88 in 10.0 mi Calm Calm - N/A   Overcast
7:55 AM 44.1 °F - 24.1 °F 45% 29.87 in 10.0 mi Calm Calm - N/A   Partly Cloudy
8:55 AM 46.0 °F - 24.1 °F 42% 29.88 in 10.0 mi Calm Calm - N/A   Partly Cloudy
9:55 AM 46.9 °F - 27.0 °F 46% 29.87 in 10.0 mi Calm Calm - N/A   Clear
10:55 AM 52.0 °F - 27.0 °F 38% 29.84 in 10.0 mi North 3.5 mph - N/A   Clear
11:55 AM 55.0 °F - 26.1 °F 33% 29.82 in 10.0 mi Calm Calm - N/A   Mostly Cloudy
12:55 PM 59.0 °F - 24.1 °F 26% 29.79 in 10.0 mi Calm Calm - N/A   Partly Cloudy
1:55 PM 63.0 °F - 24.1 °F 23% 29.77 in 10.0 mi ENE 4.6 mph - N/A   Mostly Cloudy
2:55 PM 69.1 °F - 19.0 °F 15% 29.75 in 10.0 mi Variable 6.9 mph - N/A   Mostly Cloudy
3:55 PM 68.0 °F - 19.0 °F 15% 29.77 in 10.0 mi SSW 5.8 mph - N/A   Partly Cloudy
4:55 PM 66.9 °F - 19.0 °F 16% 29.78 in 10.0 mi WSW 11.5 mph 26.5 mph N/A   Mostly Cloudy
5:55 PM 66.9 °F - 24.1 °F 20% 29.79 in 10.0 mi WNW 19.6 mph 26.5 mph N/A   Mostly Cloudy
6:55 PM 68.0 °F - 19.9 °F 16% 29.79 in 10.0 mi West 9.2 mph 17.3 mph N/A   Clear
7:55 PM 64.9 °F - 19.9 °F 18% 29.79 in 10.0 mi West 9.2 mph 19.6 mph N/A   Clear
8:55 PM 59.0 °F - 21.0 °F 23% 29.81 in 10.0 mi WNW 6.9 mph - N/A   Clear
9:55 PM 51.1 °F - 27.0 °F 39% 29.86 in 10.0 mi NNW 5.8 mph - N/A   Clear
10:55 PM 52.0 °F - 30.9 °F 45% 29.87 in 10.0 mi NW 8.1 mph - N/A   Clear
11:55 PM 53.1 °F - 28.0 °F 38% 29.86 in 10.0 mi NW 6.9 mph - N/A   Clear